[[{"header":{"parameterUnit":"m.s-1","parameterCategory":1,"la1":30.2991,"la2":30.254,"lo1":-89.0895,"lo2":-89.0444,"dy":0.0017,"dx":0.0017,"nx":28,"ny":28,"refTime":"2023-08-10T09:00:00:Z","depth":0,"parameterNumber":2,"parameterNumberName":"U-component_of_WINDS"},"data":[0,0,0,0,0,0,0,0,0,0,0,0,0,0,0,0,0,0,0,0,0,0,0,0,0,0,0,0,0,0,0,0,0,0,0,0,0,0,0,0,0,0,0,0,0,0,0,0,0,0,0,0,0,0,0,0,0,0,5.5163,5.5165,0,5.5299,5.53,5.5302,5.5269,5.5267,5.5264,5.5262,5.5397,5.5403,5.5408,0,0,0,0,0,0,0,0,0,0,0,0,0,5.4869,5.4875,5.5163,5.5165,5.5166,5.5298,5.53,5.5302,5.527,5.5266,5.5263,5.526,5.5395,5.5402,5.5409,0,0,0,0,0,0,0,0,0,0,0,0,0,5.5,5.4877,5.5163,5.5166,5.5168,5.5298,5.53,5.5303,5.527,5.5266,5.5262,5.5259,5.5392,5.5401,5.541,5.5544,0,0,5.5438,5.5442,0,0,0,0,0,0,0,0,5.4992,5.5011,5.5164,5.5166,5.5168,5.5263,5.5246,5.5383,5.5271,5.5231,5.5261,5.5257,5.5355,5.5367,5.5401,5.555,5.5556,5.5438,5.5444,5.5448,5.545,0,0,0,0,0,0,0,5.4983,5.5005,5.5217,5.5166,5.5169,5.5159,5.5173,5.5272,5.5313,5.5235,5.5233,5.5249,5.5355,5.5392,5.5404,5.5558,5.5438,5.5446,5.5452,5.5455,5.5817,5.5821,0,0,0,0,0,0,5.4973,5.4997,5.5212,5.5221,5.5069,5.5167,5.5183,5.5237,5.5312,5.532,5.5252,5.5247,5.5379,5.5393,5.5408,5.5565,5.5448,5.5456,5.5461,5.5813,5.5818,5.5823,0,0,0,0,0,0,5.4967,5.4993,5.5207,5.5109,5.5135,5.5176,5.5237,5.5241,5.5278,5.5326,5.5332,5.5283,5.5376,5.5396,5.5509,5.557,5.546,5.5468,5.5808,5.5815,5.582,5.5883,0,0,0,0,0,0,5.4959,5.4991,5.5044,5.511,5.514,5.5308,5.5241,5.5247,5.5294,5.5289,5.5356,5.5363,5.5375,5.5496,5.5518,5.558,5.5476,5.5803,5.5811,5.5818,5.5876,5.5891,5.5904,0,0,0,0,0,5.4949,5.5057,5.5047,5.5073,5.5208,5.5311,5.5328,5.534,5.5299,5.5351,5.5381,5.5361,5.556,5.5508,5.5533,5.5598,5.5799,5.5809,5.5818,5.587,5.5888,5.5904,0,0,0,0,0,0,5.4997,5.5066,5.5056,5.5189,5.5245,5.5306,5.5372,5.536,5.5428,5.542,5.543,5.5446,5.556,5.5591,5.5532,5.5729,5.5673,5.5688,5.5704,5.5722,5.5736,5.5724,5.5483,0,0,0,0,0,5.5023,5.5103,5.5159,5.5271,5.5299,5.5331,5.5376,5.538,5.5438,5.5461,5.5499,5.5554,5.5628,5.5678,5.5749,5.5881,5.5892,5.5938,5.5952,5.5963,5.5975,5.6041,5.606,5.5854,5.5854,5.5853,0,0,5.5078,5.5126,5.5176,5.5282,5.5325,5.5404,5.5351,5.5439,5.5496,5.5474,5.5582,5.5612,5.5674,5.5796,5.5851,5.5825,5.6034,5.5975,5.5984,5.5989,5.6052,5.6072,5.6089,5.586,5.5859,5.5858,0,0,5.5218,5.5264,5.536,5.5404,5.5471,5.549,5.5513,5.5576,5.5594,5.5704,5.5687,5.5755,5.5885,5.5927,5.5966,5.6118,5.61,5.6141,5.6213,5.6277,5.6293,5.6308,5.6357,5.6375,5.6153,5.6153,5.6154,0,5.5277,5.5399,5.5411,5.5499,5.5543,5.5527,5.5621,5.5663,5.5749,5.5779,5.5749,5.5907,5.5948,5.6077,5.6113,5.6147,5.617,5.6132,5.6291,5.6305,5.6319,5.6365,5.6385,5.6158,5.6157,5.6157,5.6156,0,5.5465,5.5549,5.5619,5.5701,5.5754,5.5845,5.5868,5.592,5.5918,5.594,5.6049,5.6097,5.6175,5.6207,5.6207,5.6334,5.6315,5.6288,5.6232,5.6342,5.6386,5.6405,5.6164,5.6162,5.6161,5.616,0,0,5.564,5.5726,5.5751,5.5786,5.5856,5.592,5.6008,5.6085,5.6127,5.6186,5.6257,5.6365,5.6339,5.6383,5.6388,5.6445,5.6555,5.641,5.6411,5.6431,5.6692,5.6709,5.673,5.6545,5.6548,5.6551,5.6685,0,5.5782,5.5939,5.5951,5.6091,5.6165,5.6149,5.6225,5.6274,5.6297,5.6361,5.6385,5.6459,5.6422,5.6447,5.6503,5.653,5.6607,5.6521,5.6607,5.661,5.6588,5.6754,5.6774,5.6898,5.6703,5.6706,5.6708,0,5.597,5.6033,5.6181,5.6236,5.6267,5.6336,5.6404,5.6468,5.6522,5.6534,5.6581,5.6577,5.6663,5.6606,5.6723,5.6664,5.67,5.6718,5.6723,5.6729,5.6663,5.676,5.6939,5.6955,5.6736,5.6734,5.6732,0,5.6076,5.6199,5.6301,5.6332,5.6401,5.6448,5.6479,5.6529,5.6573,5.6633,5.666,5.673,5.6766,5.6819,5.6831,5.679,5.6946,5.6892,5.6955,5.6954,5.6986,5.6984,5.7169,5.7017,5.7016,5.7016,5.7016,0,5.6231,5.6321,5.6349,5.6412,5.651,5.6521,5.6617,5.6644,5.6689,5.6754,5.6745,5.6806,5.6821,5.6884,5.6895,5.6987,5.7005,5.7014,5.7014,5.7012,5.701,5.7033,5.7023,5.7021,5.702,5.7019,5.7018,0,5.6366,5.6389,5.6499,5.6554,5.6569,5.6639,5.6684,5.6743,5.6763,5.6845,5.6865,5.6896,5.6969,5.6987,5.7075,5.7082,5.7189,5.7184,5.7171,5.7169,5.723,5.7222,5.7433,5.7459,5.7294,5.7295,5.7297,0,5.6462,5.653,5.6591,5.6634,5.6666,5.6737,5.6781,5.6794,5.6839,5.6904,5.6953,5.7025,5.7083,5.72,5.7229,5.7294,5.7288,5.7357,5.7298,5.7291,5.7283,5.7277,5.7282,5.7367,5.7369,5.7371,5.7372,0,5.6628,5.6635,5.6699,5.6767,5.6819,5.6873,5.6925,5.696,5.6979,5.7031,5.7105,5.715,5.7238,5.7308,5.7373,5.7401,5.7388,5.7391,5.7408,5.7404,5.7392,5.7394,5.7197,5.7385,5.7384,5.7383,5.7382,5.7382,5.6742,5.68,5.6851,5.6922,5.6961,5.7009,5.7065,5.7091,5.7154,5.7226,5.723,5.7309,5.7357,5.7444,5.7476,5.7536,5.7515,5.7541,5.7547,5.7552,5.7555,5.7385,5.7549,5.7548,5.7548,5.7548,5.7548,0,5.6903,5.6935,5.7,5.7071,5.7126,5.711,5.7165,5.7211,5.7281,5.7328,5.7384,5.7467,5.7534,5.7567,5.7632,5.7674,5.7669,5.769,5.7685,5.7691,5.7573,5.7549,5.7692,5.7692,5.7692,5.7692,5.7692,5.7692,5.6993,5.7088,5.7101,5.7214,5.7244,5.7322,5.7354,5.7396,5.7432,5.7525,5.7581,5.7602,5.7642,5.771,5.7769,5.7776,5.7799,5.7822,5.7826,5.7715,5.77,5.7686,5.7663,5.7828,5.7828,5.7938,5.7939,5.794]},{"header":{"parameterUnit":"m.s-1","parameterCategory":1,"la1":30.2991,"la2":30.254,"lo1":-89.0895,"lo2":-89.0444,"dy":0.0017,"dx":0.0017,"nx":28,"ny":28,"refTime":"2023-08-10T09:00:00:Z","depth":0,"parameterNumber":3,"parameterNumberName":"V-component_of_WINDS"},"data":[0,0,0,0,0,0,0,0,0,0,0,0,0,0,0,0,0,0,0,0,0,0,0,0,0,0,0,0,0,0,0,0,0,0,0,0,0,0,0,0,0,0,0,0,0,0,0,0,0,0,0,0,0,0,0,0,0,0,4.5177,4.5178,0,4.528,4.5281,4.5282,4.5253,4.5251,4.5249,4.5247,4.5349,4.5354,4.5358,0,0,0,0,0,0,0,0,0,0,0,0,0,4.495,4.4954,4.5176,4.5178,4.5179,4.5279,4.5281,4.5282,4.5254,4.5251,4.5249,4.5246,4.5348,4.5353,4.5359,0,0,0,0,0,0,0,0,0,0,0,0,0,4.505,4.4955,4.5176,4.5177,4.5178,4.5279,4.5281,4.5283,4.5254,4.5251,4.5248,4.5245,4.5346,4.5353,4.536,4.5465,0,0,4.5381,4.5384,0,0,0,0,0,0,0,0,4.5044,4.5058,4.5176,4.5177,4.5179,4.5251,4.5238,4.5344,4.5255,4.5225,4.5247,4.5244,4.5319,4.5328,4.5354,4.547,4.5474,4.5382,4.5386,4.5389,4.5391,0,0,0,0,0,0,0,4.5037,4.5054,4.5217,4.5177,4.5179,4.517,4.5181,4.5258,4.5288,4.5228,4.5226,4.5239,4.5319,4.5347,4.5356,4.5476,4.5381,4.5388,4.5392,4.5395,4.5679,4.5683,0,0,0,0,0,0,4.503,4.5048,4.5214,4.522,4.5103,4.5177,4.5189,4.5231,4.5287,4.5293,4.5241,4.5237,4.5337,4.5348,4.5359,4.5485,4.5389,4.5395,4.5399,4.5676,4.568,4.5684,0,0,0,0,0,0,4.5025,4.5045,4.521,4.5134,4.5154,4.5184,4.5231,4.5234,4.5262,4.5298,4.5302,4.5265,4.5335,4.535,4.5438,4.5488,4.5398,4.5405,4.5672,4.5677,4.5682,4.5737,0,0,0,0,0,0,4.5019,4.5044,4.5085,4.5135,4.5158,4.5289,4.5234,4.5238,4.5275,4.527,4.5321,4.5326,4.5333,4.5428,4.5445,4.5496,4.541,4.5668,4.5674,4.568,4.5731,4.5743,4.5754,0,0,0,0,0,4.5011,4.5097,4.5088,4.5108,4.5211,4.5292,4.5305,4.5313,4.5279,4.532,4.5342,4.5325,4.548,4.5438,4.5457,4.551,4.5665,4.5673,4.568,4.5725,4.5741,4.5753,0,0,0,0,0,0,4.5051,4.5103,4.5094,4.5199,4.5241,4.5287,4.5339,4.5329,4.5381,4.5374,4.538,4.5392,4.5482,4.5505,4.5457,4.5613,4.5567,4.5579,4.5595,4.561,4.5621,4.5613,4.5416,0,0,0,0,0,4.5073,4.5135,4.5176,4.5265,4.5286,4.5309,4.5345,4.5347,4.539,4.5408,4.5436,4.5478,4.5536,4.5574,4.563,4.5734,4.5743,4.5779,4.5791,4.58,4.581,4.5864,4.588,4.5709,4.5709,4.5709,0,0,4.5117,4.5153,4.5192,4.5274,4.5307,4.5369,4.5325,4.5393,4.5439,4.5418,4.5503,4.5526,4.5572,4.5669,4.5713,4.569,4.5859,4.581,4.5817,4.5822,4.5873,4.589,4.5904,4.5714,4.5713,4.5712,0,0,4.523,4.5264,4.534,4.5374,4.5425,4.5439,4.5457,4.5505,4.5519,4.5605,4.5589,4.5643,4.5743,4.5776,4.5806,4.5929,4.5914,4.5946,4.6006,4.6059,4.6072,4.6084,4.6126,4.6141,4.5956,4.5956,4.5956,0,4.5278,4.5374,4.5381,4.545,4.5485,4.5469,4.5545,4.5577,4.5643,4.5667,4.5641,4.5765,4.5795,4.5898,4.5928,4.5953,4.5972,4.5941,4.607,4.6082,4.6093,4.6133,4.6149,4.596,4.596,4.5959,4.5959,0,4.5429,4.5495,4.555,4.5615,4.5656,4.5729,4.5744,4.5785,4.5782,4.5799,4.5885,4.5921,4.5982,4.6006,4.6005,4.6108,4.6092,4.6069,4.6022,4.6113,4.6151,4.6166,4.5965,4.5964,4.5963,4.5962,0,0,4.5572,4.5638,4.5658,4.5686,4.5739,4.5789,4.586,4.592,4.5954,4.5999,4.6057,4.6141,4.6118,4.6152,4.6154,4.62,4.6292,4.617,4.6171,4.619,4.6405,4.6422,4.644,4.6282,4.6285,4.6288,4.6401,0,4.5688,4.5813,4.582,4.5933,4.5992,4.5977,4.6037,4.6076,4.6092,4.6143,4.616,4.6219,4.6186,4.6206,4.6252,4.6271,4.6335,4.6263,4.6334,4.6337,4.6322,4.646,4.6479,4.6584,4.6416,4.6418,4.642,0,4.5841,4.5891,4.6009,4.6052,4.6077,4.6132,4.6187,4.6237,4.6279,4.6287,4.6324,4.6319,4.6388,4.6339,4.6434,4.6385,4.6414,4.6427,4.6432,4.6438,4.6383,4.6469,4.6618,4.6633,4.6444,4.6442,4.644,0,4.593,4.6027,4.611,4.6135,4.6188,4.6226,4.6249,4.6288,4.6323,4.637,4.6392,4.6447,4.6476,4.6517,4.6526,4.649,4.6619,4.6572,4.6626,4.6626,4.6654,4.6652,4.6809,4.6675,4.6674,4.6674,4.6674,0,4.6059,4.6132,4.6151,4.6202,4.6282,4.6288,4.6367,4.6387,4.6422,4.6475,4.6464,4.6513,4.6522,4.6573,4.6579,4.6655,4.6669,4.6676,4.6677,4.6677,4.6675,4.6695,4.6688,4.6678,4.6677,4.6677,4.6676,0,4.6173,4.6189,4.6278,4.632,4.6332,4.6389,4.6424,4.6472,4.6486,4.6553,4.6569,4.6591,4.665,4.6663,4.6733,4.6737,4.6826,4.682,4.6813,4.6812,4.6865,4.6859,4.7039,4.7062,4.6914,4.6915,4.6916,0,4.6253,4.6309,4.6357,4.6392,4.6417,4.6474,4.6509,4.6516,4.6553,4.6604,4.6645,4.6703,4.675,4.6844,4.6865,4.6918,4.6912,4.6972,4.692,4.6917,4.6911,4.6908,4.6912,4.6981,4.6983,4.6984,4.6985,0,4.6394,4.6399,4.6451,4.6505,4.6548,4.6591,4.6632,4.6661,4.6673,4.6715,4.6775,4.6812,4.6882,4.6939,4.6991,4.7013,4.7001,4.7001,4.7016,4.7016,4.7009,4.7012,4.6838,4.6997,4.6996,4.6995,4.6994,4.6994,4.6493,4.654,4.6581,4.6638,4.667,4.6708,4.6754,4.6774,4.6825,4.6884,4.6884,4.695,4.6987,4.7056,4.7081,4.7131,4.7112,4.7135,4.714,4.7145,4.7149,4.7002,4.7141,4.714,4.714,4.714,4.714,0,4.6631,4.6656,4.6709,4.6766,4.6811,4.6796,4.684,4.6878,4.6936,4.6973,4.7019,4.7087,4.7141,4.7166,4.7219,4.7254,4.7249,4.7268,4.7265,4.7269,4.7164,4.7145,4.727,4.727,4.727,4.727,4.727,4.727,4.6708,4.6788,4.6797,4.689,4.6914,4.6979,4.7005,4.7039,4.7068,4.7145,4.719,4.7206,4.7237,4.7292,4.7341,4.7346,4.7366,4.7387,4.7389,4.729,4.7277,4.7264,4.7246,4.7391,4.7391,4.749,4.7491,4.7492]}]]